This demonstration page uses our WeatherBlox Daily Observations layout. Learn more.

Left ArrowRight Arrow

41.55636, -103.73856

Hourly Observations for July 5, 2015

Temp ( °F °C ) Dew Point ( °F °C ) Humidity (%) Winds ( mph kmh ) Pressure ( in mb ) Visibility ( mi km ) Precip ( " mm )
12:53 am 00:53 Clear 69 20.6 62 16.7 78 78 ESE 7 11 29.7 1006 10 16.0934 0 0
1:53 am 01:53 Partly Cloudy 67 19.4 62 16.7 84 84 E 9 15 29.7 1006 10 16.0934 0 0
2:53 am 02:53 Clear 65 18.3 61 16.1 87 87 Calm 29.7 1006 10 16.0934 0 0
3:53 am 03:53 Clear 64 17.8 60 15.6 87 87 NE 3 6 29.7 1006 10 16.0934 0 0
4:53 am 04:53 Clear 64 17.8 61 16.1 90 90 ENE 3 6 29.7 1006 10 16.0934 0 0
5:53 am 05:53 Sunny 63 17.2 61 16.1 93 93 S 3 6 29.7 1006 10 16.0934 0 0
6:53 am 06:53 Sunny 67 19.4 63 17.2 87 87 Calm 29.73 1007 9 14.48406 0 0
7:53 am 07:53 Sunny 72 22.2 64 17.8 76 76 NW 3 6 29.73 1007 10 16.0934 0 0
8:53 am 08:53 Sunny 78 25.6 64 17.8 62 62 Calm 29.72 1007 10 16.0934 0 0
9:53 am 09:53 Sunny 83 28.3 64 17.8 53 53 Calm 29.71 1006 10 16.0934 0 0
10:53 am 10:53 Sunny 86 30 61 16.1 43 43 S 6 9 29.7 1006 10 16.0934 0 0
11:53 am 11:53 Sunny 90 32.2 55 12.8 31 31 W 7 11 29.69 1005 10 16.0934 0 0
12:53 pm 12:53 Sunny 92 33.3 55 12.8 29 29 WNW 10 17 29.68 1005 10 16.0934 0 0
1:53 pm 13:53 Sunny 94 34.4 55 12.8 27 27 VRB 7 11 29.66 1004 10 16.0934 0 0
2:53 pm 14:53 Sunny 94 34.4 55 12.8 27 27 W 8 13 29.65 1004 10 16.0934 0 0
3:41 pm 15:41 Partly Cloudy with Nearby Thunderstorms 85 29.4 60 15.6 43 43 NNE 16 26 29.53 1000 10 16.0934 0 0
3:53 pm 15:53 Mostly Cloudy with Nearby Thunderstorms 84 28.9 64 17.8 51 51 N 20 31 29.71 1006 10 16.0934 0 0
4:22 pm 16:22 Cloudy with Thunderstorms 82 28 63 17 51 51 N 12 19 29.59 1002 10 16.0934 0 0
4:37 pm 16:37 Cloudy with Heavy Thunderstorms 69 20.6 62 16.7 78 78 WSW 35 56 29.74 1007 1.75 2.816345 0.04 1.016
4:45 pm 16:45 Cloudy with Heavy Thunderstorms 65 18.3 60 15.6 84 84 WSW 22 35 29.83 1010 1 1.60934 0.23 5.842
4:49 pm 16:49 Cloudy with Heavy Thunderstorms 64 18 61 16 88 88 SSW 17 28 29.83 1010 0.75 1.207005 0.38 9.652
4:53 pm 16:53 Cloudy with Heavy Thunderstorms 64 17.8 61 16.1 90 90 S 13 20 29.9 1013 0.75 1.207005 0.58 14.732
4:59 pm 16:59 Cloudy with Heavy Thunderstorms 63 17.2 60 15.6 90 90 ESE 12 19 29.83 1010 1.25 2.011675 0.16 4.064
5:05 pm 17:05 Cloudy with Heavy Thunderstorms 64 17.8 60 15.6 87 87 NNW 12 19 29.8 1009 3 4.82802 0.2 5.08
5:53 pm 17:53 Windy with Storms Likely 64 18 N/A N/A NNW 20 31 29.85 1011 8 12.87472 0.42 10.668
6:09 pm 18:09 Cloudy with Nearby Thunderstorms 66 18.9 66 18.9 100 100 NNW 13 20 29.77 1008 9 14.48406 0.02 0.508
6:25 pm 18:25 Cloudy with Light Rain 65 18.3 64 17.8 97 97 NW 15 24 29.77 1008 10 16.0934 0.02 0.508
6:42 pm 18:42 Windy with Storms Likely 64 18 64 18 100 100 NNW 23 37 29.77 1008 10 16.0934 0 0
6:53 pm 18:53 Cloudy with Light Rain 65 18.3 64 17.8 97 97 NNW 23 37 29.83 1010 10 16.0934 0.02 0.508
7:12 pm 19:12 Windy with Storms Likely 64 18 64 18 100 100 NNW 21 33 29.77 1008 5 8.0467 0 0
7:45 pm 19:45 Mostly Cloudy with Light Rain 66 19 N/A N/A NW 20 31 29.77 1008 10 16.0934 0.06 1.524
7:53 pm 19:53 Mostly Cloudy with Light Rain 66 19 N/A N/A NW 17 28 29.81 1009 9 14.48406 0.06 1.524
8:46 pm 20:46 Clear 66 19 N/A N/A WNW 12 19 29.77 1008 10 16.0934 0 0.0254
8:53 pm 20:53 Mostly Clear 66 19 N/A N/A W 13 20 29.82 1010 10 16.0934 0 0.0254
9:53 pm 21:53 Mostly Cloudy 66 18.9 66 18.9 100 100 N 15 24 29.86 1011 10 16.0934 0 0
10:37 pm 22:37 Cloudy 65 18.3 63 17.2 93 93 N 18 30 29.88 1012 10 16.0934 0 0
10:53 pm 22:53 Cloudy 65 18.3 63 17.2 93 93 N 21 33 29.88 1012 10 16.0934 0 0
11:53 pm 23:53 Cloudy 63 17.2 59 15 87 87 NNE 16 26 29.91 1013 10 16.0934 0 0.0254

Powered by AerisWeather